[[{"header":{"parameterUnit":"m.s-1","parameterCategory":1,"la1":30.2991,"la2":30.254,"lo1":-89.0895,"lo2":-89.0444,"dy":0.0017,"dx":0.0017,"nx":28,"ny":28,"refTime":"2024-12-05T09:00:00:Z","depth":0,"parameterNumber":2,"parameterNumberName":"U-component_of_WINDS"},"data":[0,0,0,0,0,0,0,0,0,0,0,0,0,0,0,0,0,0,0,0,0,0,0,0,0,0,0,0,0,0,0,0,0,0,0,0,0,0,0,0,0,0,0,0,0,0,0,0,0,0,0,0,0,0,0,0,0,0,-2.2737,-2.2738,0,-2.2807,-2.2808,-2.2809,-2.2748,-2.2746,-2.2743,-2.2741,-2.2814,-2.2818,-2.2822,0,0,0,0,0,0,0,0,0,0,0,0,0,-2.2551,-2.2555,-2.2737,-2.2738,-2.2739,-2.2807,-2.2808,-2.2809,-2.2749,-2.2746,-2.2743,-2.274,-2.2813,-2.2818,-2.2823,0,0,0,0,0,0,0,0,0,0,0,0,0,-2.2628,-2.2556,-2.2737,-2.2717,-2.2716,-2.2807,-2.2808,-2.2809,-2.2749,-2.2746,-2.2742,-2.2738,-2.2811,-2.2817,-2.2824,-2.2938,0,0,-2.2843,-2.2846,0,0,0,0,0,0,0,0,-2.2623,-2.2634,-2.2719,-2.2718,-2.2717,-2.2765,-2.2769,-2.2852,-2.275,-2.2737,-2.2741,-2.2736,-2.2801,-2.2808,-2.2829,-2.2942,-2.2945,-2.2844,-2.2848,-2.285,-2.2852,0,0,0,0,0,0,0,-2.2618,-2.2631,-2.2765,-2.272,-2.2719,-2.2704,-2.2711,-2.2785,-2.2789,-2.2738,-2.2733,-2.2742,-2.28,-2.2823,-2.2831,-2.2946,-2.2844,-2.2849,-2.2853,-2.2856,-2.3155,-2.3159,0,0,0,0,0,0,-2.2615,-2.2627,-2.2762,-2.2767,-2.266,-2.2711,-2.2718,-2.2754,-2.2788,-2.279,-2.2745,-2.2739,-2.2814,-2.2823,-2.2833,-2.2969,-2.285,-2.2856,-2.286,-2.3151,-2.3156,-2.316,0,0,0,0,0,0,-2.2611,-2.2627,-2.276,-2.2696,-2.2711,-2.2718,-2.2758,-2.2757,-2.278,-2.2794,-2.2795,-2.2769,-2.2812,-2.2824,-2.2912,-2.2971,-2.2859,-2.2865,-2.3146,-2.3152,-2.3158,-2.3244,0,0,0,0,0,0,-2.2606,-2.2626,-2.267,-2.2697,-2.2715,-2.2838,-2.2762,-2.2761,-2.2791,-2.2784,-2.2816,-2.2818,-2.281,-2.2903,-2.2919,-2.2978,-2.287,-2.3141,-2.3149,-2.3156,-2.3236,-2.3252,-2.3266,0,0,0,0,0,-2.2599,-2.2692,-2.2673,-2.269,-2.277,-2.2842,-2.2852,-2.284,-2.2796,-2.2841,-2.2849,-2.2817,-2.2962,-2.2913,-2.293,-2.2992,-2.3137,-2.3147,-2.3155,-2.3229,-2.3249,-2.3265,0,0,0,0,0,0,-2.2673,-2.2695,-2.2674,-2.2778,-2.2808,-2.2831,-2.2887,-2.2862,-2.2906,-2.2897,-2.2881,-2.2888,-2.2981,-2.2995,-2.294,-2.3104,-2.3042,-2.3055,-2.3092,-2.3111,-2.3126,-2.3122,-2.2875,0,0,0,0,0,-2.2701,-2.2757,-2.2774,-2.2864,-2.288,-2.2881,-2.2912,-2.29,-2.293,-2.2943,-2.2958,-2.2989,-2.3042,-2.3077,-2.3126,-2.3236,-2.3242,-2.3287,-2.3302,-2.3315,-2.3327,-2.3386,-2.3406,-2.319,-2.319,-2.319,0,0,-2.276,-2.2779,-2.2816,-2.2879,-2.2901,-2.296,-2.2892,-2.2957,-2.3,-2.2953,-2.3038,-2.3049,-2.3083,-2.3183,-2.3228,-2.3197,-2.3387,-2.3327,-2.3336,-2.3342,-2.3397,-2.3418,-2.3436,-2.3197,-2.3196,-2.3195,0,0,-2.2898,-2.2918,-2.2995,-2.3018,-2.3052,-2.3051,-2.307,-2.3096,-2.3102,-2.3186,-2.3152,-2.3202,-2.3293,-2.3319,-2.3343,-2.3489,-2.3461,-2.3505,-2.3585,-2.3642,-2.3659,-2.3674,-2.3727,-2.3745,-2.3516,-2.3517,-2.3517,0,-2.2968,-2.3054,-2.3038,-2.3106,-2.3134,-2.3093,-2.3171,-2.3194,-2.3242,-2.3263,-2.3227,-2.334,-2.3359,-2.3464,-2.35,-2.3521,-2.3541,-2.3502,-2.3658,-2.3673,-2.3687,-2.3736,-2.3756,-2.3522,-2.3521,-2.3521,-2.352,0,-2.3138,-2.3199,-2.3257,-2.3304,-2.3339,-2.3411,-2.3406,-2.3443,-2.3427,-2.3431,-2.3516,-2.3538,-2.3591,-2.3614,-2.36,-2.3717,-2.3697,-2.366,-2.3598,-2.3713,-2.3759,-2.3778,-2.3529,-2.3527,-2.3526,-2.3525,0,0,-2.3327,-2.3362,-2.3384,-2.3404,-2.3437,-2.3484,-2.3554,-2.3604,-2.3637,-2.367,-2.3729,-2.3806,-2.3771,-2.3799,-2.3787,-2.3838,-2.3951,-2.3795,-2.3795,-2.3824,-2.4082,-2.411,-2.4132,-2.3932,-2.3935,-2.3938,-2.4079,0,-2.3467,-2.3588,-2.3575,-2.3691,-2.3746,-2.3706,-2.3767,-2.3794,-2.3798,-2.3846,-2.385,-2.3905,-2.3856,-2.3872,-2.392,-2.3928,-2.4003,-2.3917,-2.3987,-2.3989,-2.3981,-2.4156,-2.4187,-2.4319,-2.4097,-2.41,-2.4102,0,-2.3647,-2.3686,-2.3808,-2.3831,-2.3854,-2.3909,-2.3954,-2.3999,-2.4028,-2.4028,-2.4058,-2.4037,-2.4107,-2.4041,-2.4137,-2.4079,-2.4106,-2.4114,-2.4119,-2.4126,-2.4054,-2.417,-2.4361,-2.4381,-2.413,-2.4128,-2.4126,0,-2.3773,-2.3857,-2.394,-2.3958,-2.3988,-2.4027,-2.4041,-2.4066,-2.4097,-2.4136,-2.4155,-2.4202,-2.4228,-2.4264,-2.4256,-2.4209,-2.4354,-2.4288,-2.4356,-2.4356,-2.439,-2.4388,-2.4589,-2.4405,-2.4405,-2.4404,-2.4404,0,-2.3932,-2.4008,-2.3997,-2.4049,-2.4132,-2.4115,-2.4198,-2.4207,-2.423,-2.4282,-2.425,-2.4299,-2.4284,-2.4333,-2.4327,-2.4407,-2.4419,-2.442,-2.4418,-2.4424,-2.4424,-2.4443,-2.4434,-2.441,-2.4408,-2.4407,-2.4407,0,-2.4088,-2.4084,-2.4172,-2.4192,-2.4198,-2.4259,-2.4276,-2.4324,-2.4325,-2.4391,-2.4406,-2.4407,-2.4463,-2.4457,-2.452,-2.4515,-2.4615,-2.4601,-2.4606,-2.4603,-2.4671,-2.4665,-2.4893,-2.4922,-2.4718,-2.472,-2.4722,0,-2.419,-2.4248,-2.4273,-2.4306,-2.4322,-2.4375,-2.4406,-2.439,-2.4424,-2.446,-2.4504,-2.4556,-2.4598,-2.4688,-2.4695,-2.4742,-2.473,-2.4806,-2.4737,-2.4741,-2.4732,-2.4729,-2.4735,-2.4821,-2.4823,-2.4825,-2.4826,0,-2.4373,-2.4367,-2.4413,-2.4458,-2.4495,-2.453,-2.4561,-2.4589,-2.4577,-2.4616,-2.4672,-2.4704,-2.4767,-2.482,-2.4864,-2.4878,-2.4851,-2.4848,-2.4866,-2.4874,-2.4874,-2.4875,-2.4644,-2.4843,-2.4841,-2.484,-2.4839,-2.4839,-2.4506,-2.4555,-2.458,-2.4631,-2.4653,-2.4682,-2.4728,-2.4734,-2.4781,-2.4831,-2.4818,-2.4882,-2.4907,-2.4964,-2.4983,-2.5032,-2.5004,-2.5031,-2.5037,-2.5045,-2.5053,-2.4865,-2.504,-2.5039,-2.5039,-2.5038,-2.5038,0,-2.4687,-2.47,-2.4748,-2.4792,-2.4833,-2.4801,-2.4834,-2.487,-2.4926,-2.4952,-2.4993,-2.5057,-2.5107,-2.5117,-2.5165,-2.5202,-2.5191,-2.5215,-2.5213,-2.5217,-2.5075,-2.5054,-2.5224,-2.5224,-2.5224,-2.5224,-2.5224,-2.5224,-2.4786,-2.4867,-2.4864,-2.4955,-2.4968,-2.503,-2.5051,-2.5078,-2.5098,-2.5171,-2.5213,-2.5218,-2.5237,-2.5286,-2.5331,-2.5332,-2.5351,-2.5381,-2.5378,-2.5245,-2.5227,-2.5209,-2.519,-2.5385,-2.5386,-2.5516,-2.5517,-2.5518]},{"header":{"parameterUnit":"m.s-1","parameterCategory":1,"la1":30.2991,"la2":30.254,"lo1":-89.0895,"lo2":-89.0444,"dy":0.0017,"dx":0.0017,"nx":28,"ny":28,"refTime":"2024-12-05T09:00:00:Z","depth":0,"parameterNumber":3,"parameterNumberName":"V-component_of_WINDS"},"data":[0,0,0,0,0,0,0,0,0,0,0,0,0,0,0,0,0,0,0,0,0,0,0,0,0,0,0,0,0,0,0,0,0,0,0,0,0,0,0,0,0,0,0,0,0,0,0,0,0,0,0,0,0,0,0,0,0,0,-7.947,-7.9471,0,-7.9583,-7.9584,-7.9585,-7.9485,-7.9481,-7.9477,-7.9473,-7.9582,-7.9589,-7.9595,0,0,0,0,0,0,0,0,0,0,0,0,0,-7.9161,-7.9168,-7.947,-7.9472,-7.9473,-7.9583,-7.9584,-7.9586,-7.9486,-7.9481,-7.9476,-7.9471,-7.958,-7.9588,-7.9596,0,0,0,0,0,0,0,0,0,0,0,0,0,-7.9287,-7.917,-7.947,-7.9436,-7.9435,-7.9582,-7.9584,-7.9586,-7.9487,-7.9481,-7.9474,-7.9469,-7.9577,-7.9587,-7.9597,-7.9782,0,0,-7.9628,-7.9632,0,0,0,0,0,0,0,0,-7.928,-7.9298,-7.944,-7.9439,-7.9437,-7.9514,-7.9515,-7.9651,-7.9488,-7.9467,-7.9473,-7.9466,-7.9564,-7.9575,-7.9609,-7.9787,-7.9791,-7.9629,-7.9635,-7.9639,-7.9642,0,0,0,0,0,0,0,-7.9271,-7.9293,-7.9514,-7.9442,-7.944,-7.9413,-7.9424,-7.9541,-7.9548,-7.9468,-7.9461,-7.9476,-7.9562,-7.96,-7.9611,-7.9793,-7.9628,-7.9637,-7.9643,-7.9647,-8.0126,-8.0132,0,0,0,0,0,0,-7.9267,-7.9286,-7.9511,-7.9518,-7.9342,-7.9424,-7.9436,-7.9495,-7.9547,-7.9549,-7.9481,-7.9471,-7.9585,-7.9599,-7.9614,-7.9833,-7.9639,-7.9648,-7.9654,-8.0119,-8.0127,-8.0134,0,0,0,0,0,0,-7.9261,-7.9288,-7.9506,-7.94,-7.9426,-7.9436,-7.9503,-7.9501,-7.9538,-7.9557,-7.9557,-7.9519,-7.9581,-7.96,-7.9741,-7.9835,-7.9653,-7.9662,-8.0111,-8.0121,-8.0131,-8.0272,0,0,0,0,0,0,-7.9252,-7.9286,-7.9359,-7.9403,-7.9432,-7.9634,-7.9509,-7.9507,-7.9557,-7.9544,-7.9592,-7.9594,-7.9578,-7.9726,-7.9751,-7.9846,-7.967,-8.0103,-8.0116,-8.0127,-8.0259,-8.0286,-8.0309,0,0,0,0,0,-7.9242,-7.9393,-7.9363,-7.939,-7.9523,-7.9639,-7.9656,-7.9636,-7.9565,-7.9636,-7.9647,-7.9592,-7.9821,-7.9742,-7.9768,-7.9868,-8.0097,-8.0112,-8.0126,-8.0248,-8.028,-8.0308,0,0,0,0,0,0,-7.9357,-7.9398,-7.9365,-7.9536,-7.9585,-7.9622,-7.9712,-7.9671,-7.974,-7.9726,-7.9696,-7.9708,-7.9856,-7.9876,-7.9786,-8.0048,-7.9947,-7.9968,-8.003,-8.0061,-8.0085,-8.0077,-7.9678,0,0,0,0,0,-7.9403,-7.9497,-7.9526,-7.9673,-7.97,-7.9702,-7.9752,-7.9733,-7.9782,-7.9801,-7.9823,-7.9871,-7.9953,-8.0008,-8.0085,-8.0261,-8.0269,-8.0342,-8.0367,-8.0387,-8.0406,-8.0499,-8.0531,-8.0183,-8.0183,-8.0183,0,0,-7.9498,-7.9532,-7.9592,-7.9698,-7.9734,-7.9829,-7.972,-7.9826,-7.9895,-7.9817,-7.9951,-7.9969,-8.002,-8.0179,-8.025,-8.02,-8.0504,-8.0407,-8.0423,-8.043,-8.0517,-8.055,-8.058,-8.0194,-8.0192,-8.019,0,0,-7.9719,-7.9755,-7.9881,-7.992,-7.9976,-7.9976,-8.0007,-8.005,-8.006,-8.0195,-8.0137,-8.0218,-8.0361,-8.04,-8.0438,-8.0673,-8.0624,-8.0699,-8.0828,-8.0919,-8.0946,-8.097,-8.1053,-8.1083,-8.0717,-8.0717,-8.0718,0,-7.9829,-7.9973,-7.9951,-8.0061,-8.0108,-8.0043,-8.0169,-8.0207,-8.0285,-8.0318,-8.0261,-8.0438,-8.0468,-8.0635,-8.0692,-8.0726,-8.0758,-8.0693,-8.0945,-8.0968,-8.0991,-8.1069,-8.11,-8.0726,-8.0725,-8.0724,-8.0723,0,-8.0105,-8.0205,-8.03,-8.0379,-8.0436,-8.0554,-8.0547,-8.0608,-8.0583,-8.0589,-8.0725,-8.0759,-8.0841,-8.0879,-8.0855,-8.1042,-8.1009,-8.0949,-8.0847,-8.1033,-8.1106,-8.1136,-8.0738,-8.0735,-8.0733,-8.0731,0,0,-8.0403,-8.0468,-8.0503,-8.0538,-8.0595,-8.0671,-8.0784,-8.0866,-8.0918,-8.0973,-8.1066,-8.1189,-8.1133,-8.1177,-8.1156,-8.1237,-8.1419,-8.1166,-8.1167,-8.1211,-8.1625,-8.1669,-8.1705,-8.1387,-8.1393,-8.1397,-8.162,0,-8.0626,-8.0826,-8.0808,-8.0997,-8.1088,-8.1027,-8.1125,-8.1169,-8.1177,-8.1253,-8.126,-8.1347,-8.1268,-8.1294,-8.1371,-8.1381,-8.1501,-8.1364,-8.1471,-8.1475,-8.146,-8.1743,-8.1791,-8.2,-8.1649,-8.1654,-8.1657,0,-8.0913,-8.098,-8.1178,-8.1221,-8.1258,-8.1348,-8.1421,-8.1495,-8.1543,-8.1543,-8.1592,-8.1557,-8.1669,-8.1565,-8.1716,-8.1624,-8.1666,-8.1677,-8.1685,-8.1694,-8.1577,-8.1759,-8.2066,-8.2097,-8.1702,-8.1698,-8.1695,0,-8.1109,-8.1249,-8.1386,-8.1417,-8.147,-8.1534,-8.1559,-8.1601,-8.1651,-8.1714,-8.1746,-8.182,-8.1861,-8.1918,-8.1904,-8.183,-8.2059,-8.1954,-8.206,-8.2061,-8.2111,-8.2108,-8.2429,-8.214,-8.2139,-8.2138,-8.2138,0,-8.136,-8.1483,-8.1475,-8.1559,-8.1694,-8.1672,-8.1805,-8.1822,-8.186,-8.1944,-8.1894,-8.1974,-8.195,-8.2028,-8.2017,-8.2144,-8.2163,-8.2164,-8.2159,-8.2168,-8.2168,-8.2195,-8.218,-8.2147,-8.2145,-8.2143,-8.2142,0,-8.1602,-8.1602,-8.1746,-8.1785,-8.1797,-8.1895,-8.1927,-8.2005,-8.2008,-8.2115,-8.2138,-8.2143,-8.2232,-8.2224,-8.2323,-8.2315,-8.2472,-8.245,-8.2457,-8.2452,-8.2558,-8.2548,-8.2907,-8.2953,-8.2635,-8.2638,-8.2641,0,-8.1762,-8.1855,-8.1905,-8.1958,-8.1988,-8.2075,-8.2126,-8.2107,-8.2162,-8.2223,-8.2293,-8.2378,-8.2444,-8.2588,-8.2599,-8.2674,-8.2653,-8.2774,-8.2664,-8.267,-8.2654,-8.2649,-8.2657,-8.2796,-8.2799,-8.2802,-8.2804,0,-8.2045,-8.204,-8.2117,-8.2194,-8.2257,-8.2316,-8.237,-8.2416,-8.2402,-8.2465,-8.2557,-8.2609,-8.271,-8.2794,-8.2865,-8.2887,-8.2844,-8.2839,-8.2867,-8.2877,-8.2877,-8.2877,-8.2515,-8.2831,-8.2828,-8.2826,-8.2825,-8.2824,-8.225,-8.233,-8.2378,-8.2464,-8.2503,-8.2554,-8.2629,-8.2642,-8.2719,-8.2801,-8.2784,-8.2887,-8.293,-8.3021,-8.3051,-8.3128,-8.3084,-8.3126,-8.3136,-8.3147,-8.3159,-8.2865,-8.3141,-8.314,-8.314,-8.3139,-8.3138,0,-8.253,-8.2558,-8.2638,-8.2715,-8.2783,-8.2738,-8.2794,-8.2853,-8.2945,-8.299,-8.3057,-8.3161,-8.3242,-8.3259,-8.3336,-8.3395,-8.3376,-8.3415,-8.341,-8.3416,-8.3194,-8.3162,-8.3429,-8.3429,-8.3429,-8.3429,-8.3428,-8.3428,-8.2684,-8.2817,-8.2817,-8.2968,-8.2993,-8.3095,-8.3131,-8.3177,-8.3213,-8.3332,-8.3399,-8.3411,-8.3444,-8.3522,-8.3594,-8.3596,-8.3626,-8.3673,-8.3668,-8.3461,-8.3432,-8.3404,-8.3373,-8.368,-8.3681,-8.3883,-8.3885,-8.3886]}]]